Date String (YYYY-MM-DD hh:mm:ss) UTC,Instrument flags,Ambient pressure (hPa),Sample flow (lpm),Bypass flow (lpm),Sample temperature (°C),Ambient temperature (°C),ASC tube jacket temperature (°C),LED temperature (°C),Box temperature (°C),Sample RH (%),Span deviation,Mass concentration (μg/m³),Mass concentration (μg/m³),Mass concentration (μg/m³)
DateTimeUTC,F1_M11,P_M11,Q1_M11,Q2_M11,T1_M11,T2_M11,T3_M11,T4_M11,T5_M11,U1_M11,ZSPAN_M11,X0_M11,X2_M11,X1_M11
2022-03-12 00:00:00,,0827.7,4.99,0.00,22.8,22.0,00.0,32.0,24.4,07.1,0000.0,0012.55,0005.99,0005.46
2022-03-12 00:01:00,,0827.7,5.00,0.00,22.8,21.9,00.0,32.0,24.4,07.0,0000.0,0012.10,0006.02,0005.48
2022-03-12 00:02:00,,0827.7,5.01,0.00,22.8,21.9,00.0,32.0,24.4,07.0,0000.0,0012.08,0006.05,0005.49
2022-03-12 00:03:00,,0827.7,4.98,0.00,22.8,21.9,00.0,32.0,24.4,07.1,0000.0,0011.95,0006.06,0005.50
2022-03-12 00:04:00,,0827.7,5.00,0.00,22.7,21.9,00.0,32.0,24.4,07.2,0000.0,0009.96,0006.06,0005.50
2022-03-12 00:05:00,,0827.8,5.01,0.00,22.7,21.9,00.0,31.9,24.4,07.2,0000.0,0010.19,0006.03,0005.48
2022-03-12 00:06:00,,0828.0,5.01,0.00,22.7,21.9,00.0,31.9,24.4,07.0,0000.0,0010.97,0005.97,0005.46
2022-03-12 00:07:00,,0827.9,5.00,0.00,22.7,21.9,00.0,31.9,24.4,07.0,0000.0,0011.06,0005.99,0005.44
2022-03-12 00:08:00,,0827.9,5.00,0.00,22.7,21.9,00.0,31.9,24.4,07.1,0000.0,0011.14,0005.98,0005.41
2022-03-12 00:09:00,,0827.8,5.00,0.00,22.8,21.9,00.0,31.9,24.5,07.2,0000.0,0011.05,0005.93,0005.39
2022-03-12 00:10:00,,0827.9,5.00,0.00,22.8,22.0,00.0,31.9,24.5,07.0,0000.0,0011.04,0005.91,0005.38
2022-03-12 00:11:00,,0827.8,5.00,0.00,22.8,22.0,00.0,31.8,24.5,07.0,0000.0,0011.09,0005.91,0005.35
2022-03-12 00:12:00,,0827.9,5.00,0.00,22.8,22.1,00.0,31.8,24.5,07.0,0000.0,0010.91,0005.89,0005.35
2022-03-12 00:13:00,,0827.9,5.01,0.00,22.8,22.1,00.0,31.8,24.5,07.0,0000.0,0010.91,0005.87,0005.33
2022-03-12 00:14:00,,0828.0,5.00,0.00,22.8,22.1,00.0,31.8,24.5,06.9,0000.0,0010.90,0005.87,0005.32
2022-03-12 00:15:00,,0827.9,5.00,0.00,22.8,22.1,00.0,31.8,24.5,07.0,0000.0,0011.07,0005.93,0005.32
2022-03-12 00:16:00,,0827.9,4.99,0.00,22.8,22.1,00.0,31.8,24.5,07.0,0000.0,0010.56,0005.94,0005.32
2022-03-12 00:17:00,,0827.9,5.01,0.00,22.8,22.1,00.0,31.8,24.5,07.0,0000.0,0009.64,0005.96,0005.33
2022-03-12 00:18:00,,0827.9,5.00,0.00,22.8,22.1,00.0,31.8,24.5,07.1,0000.0,0009.53,0005.94,0005.34
2022-03-12 00:19:00,,0827.9,5.00,0.00,22.8,22.1,00.0,31.8,24.5,07.1,0000.0,0009.94,0005.93,0005.36
2022-03-12 00:20:00,,0828.0,5.00,0.00,22.8,22.1,00.0,31.8,24.5,07.2,0000.0,0010.52,0005.95,0005.40
2022-03-12 00:21:00,,0828.0,4.99,0.00,22.8,22.1,00.0,31.8,24.6,07.2,0000.0,0010.50,0005.97,0005.42
2022-03-12 00:22:00,,0828.0,5.01,0.00,22.8,22.1,00.0,31.8,24.6,07.2,0000.0,0010.39,0005.98,0005.45
2022-03-12 00:23:00,,0828.0,5.00,0.00,22.8,22.1,00.0,31.8,24.6,07.2,-000.5,0010.53,0006.03,0005.48
2022-03-12 00:24:00,,0828.0,5.00,0.00,22.8,22.1,00.0,31.8,24.6,07.2,-000.4,0010.57,0006.08,0005.52
2022-03-12 00:25:00,,0828.2,4.99,0.00,22.8,22.1,00.0,31.8,24.6,07.2,-000.7,0010.96,0006.12,0005.55
2022-03-12 00:26:00,,0828.1,5.00,0.00,22.8,22.1,00.0,31.8,24.6,07.2,0000.2,0011.10,0006.10,0005.57
2022-03-12 00:27:00,,0828.0,5.00,0.00,22.8,22.1,00.0,31.8,24.6,07.2,0001.4,0011.51,0006.14,0005.59
2022-03-12 00:28:00,,0828.1,4.99,0.00,22.8,22.1,00.0,31.8,24.6,07.2,0001.6,0012.08,0006.20,0005.61
2022-03-12 00:29:00,,0828.1,5.00,0.00,22.8,22.1,00.0,31.8,24.6,07.2,0002.4,0012.19,0006.24,0005.63
2022-03-12 00:30:00,,0828.0,5.00,0.00,22.8,22.1,00.0,31.8,24.6,07.2,0002.4,0011.87,0006.29,0005.64
2022-03-12 00:31:00,,0828.4,5.00,0.00,22.8,22.1,00.0,31.8,24.6,07.2,0000.0,0011.27,0006.31,0005.66
2022-03-12 00:32:00,,0828.0,4.99,0.00,22.8,22.1,00.0,31.8,24.6,07.2,0000.5,0011.33,0006.34,0005.68
2022-03-12 00:33:00,,0827.9,5.00,0.00,22.8,22.1,00.0,31.8,24.5,07.2,0000.0,0011.37,0006.36,0005.70
2022-03-12 00:34:00,,0828.3,5.01,0.00,22.8,22.1,00.0,31.8,24.5,07.2,0000.0,0012.18,0006.36,0005.71
2022-03-12 00:35:00,,0828.2,4.99,0.00,22.8,22.1,00.0,31.8,24.5,07.2,0000.0,0013.08,0006.35,0005.71
2022-03-12 00:36:00,,0828.1,5.00,0.00,22.8,22.1,00.0,31.8,24.6,07.2,0000.0,0012.75,0006.32,0005.70
2022-03-12 00:37:00,,0828.0,5.00,0.00,22.8,22.0,00.0,31.8,24.6,07.4,0000.0,0012.46,0006.32,0005.71
2022-03-12 00:38:00,,0828.2,5.00,0.00,22.8,22.0,00.0,31.8,24.6,07.3,0000.0,0012.37,0006.31,0005.72
2022-03-12 00:39:00,,0828.0,5.00,0.00,22.8,22.0,00.0,31.8,24.5,07.3,0000.0,0011.97,0006.29,0005.73
2022-03-12 00:40:00,,0828.0,5.01,0.00,22.8,22.1,00.0,31.8,24.5,07.4,0000.0,0012.03,0006.30,0005.74
2022-03-12 00:41:00,,0828.0,5.00,0.00,22.8,22.1,00.0,31.8,24.5,07.4,0001.7,0011.97,0006.28,0005.74
2022-03-12 00:42:00,,0828.1,5.00,0.00,22.8,22.1,00.0,31.8,24.5,07.4,0003.1,0011.92,0006.27,0005.73
2022-03-12 00:43:00,,0828.1,4.99,0.00,22.8,22.1,00.0,31.8,24.5,07.4,0000.6,0011.91,0006.26,0005.72
2022-03-12 00:44:00,,0828.0,4.99,0.00,22.8,22.1,00.0,31.8,24.5,07.4,0000.7,0012.17,0006.25,0005.71
2022-03-12 00:45:00,,0828.0,5.00,0.00,22.8,22.1,00.0,31.8,24.5,07.4,0001.9,0011.64,0006.27,0005.70
2022-03-12 00:46:00,,0828.0,5.00,0.00,22.8,22.1,00.0,31.8,24.5,07.4,0002.0,0010.59,0006.29,0005.70
2022-03-12 00:47:00,,0827.9,5.00,0.00,22.8,22.1,00.0,31.8,24.5,07.3,0001.7,0010.63,0006.28,0005.68
2022-03-12 00:48:00,,0827.9,4.99,0.00,22.8,22.0,00.0,31.8,24.5,07.3,0001.9,0010.67,0006.30,0005.67
2022-03-12 00:49:00,,0827.9,5.01,0.00,22.8,22.0,00.0,31.8,24.5,07.3,0001.3,0011.55,0006.26,0005.63
2022-03-12 00:50:00,,0828.0,5.00,0.00,22.8,22.0,00.0,31.8,24.5,07.3,0000.9,0011.88,0006.25,0005.60
2022-03-12 00:51:00,,0827.9,5.00,0.00,22.8,22.0,00.0,31.8,24.4,07.3,0001.7,0012.26,0006.25,0005.58
2022-03-12 00:52:00,,0827.9,5.00,0.00,22.7,21.9,00.0,31.8,24.4,07.3,0000.4,0012.63,0006.24,0005.56
2022-03-12 00:53:00,,0827.9,5.00,0.00,22.7,21.9,00.0,31.7,24.4,07.4,0000.0,0012.70,0006.26,0005.54
2022-03-12 00:54:00,,0828.0,4.99,0.00,22.7,21.9,00.0,31.7,24.4,07.4,0000.0,0012.71,0006.25,0005.51
2022-03-12 00:55:00,,0828.0,4.99,0.00,22.7,21.9,00.0,31.7,24.4,07.4,0000.0,0012.62,0006.21,0005.47
2022-03-12 00:56:00,,0828.2,5.00,0.00,22.7,21.8,00.0,31.7,24.3,07.5,0000.0,0012.67,0006.18,0005.44
2022-03-12 00:57:00,,0828.2,5.01,0.00,22.6,21.8,00.0,31.7,24.3,07.5,0000.0,0012.64,0006.11,0005.40
2022-03-12 00:58:00,,0828.5,4.99,0.00,22.6,21.8,00.0,31.7,24.4,07.4,0000.0,0013.08,0006.02,0005.33
2022-03-12 00:59:00,,0828.1,5.02,0.00,22.6,21.8,00.0,31.7,24.3,07.3,0000.0,0013.26,0005.91,0005.24
